Search your local weather  

 

Hazardous Weather Conditions

No active alerts for NEW YORK, NEW YORK

Current Conditions: NEW YORK, NEW YORK

Fair


76.0 F

Last Updated on Oct 21 2021, 1:51 pm EDT
Humidity: 37%
Wind Speed: SW 15.0 mph
Barometer 29.93 in
Dewpoint: 48.0 F
Visibility: 10.00 mi
Precip: --
Heat Index: NA
Wind Chill: NA
Current conditions at:

Teterboro, Teterboro Airport, NJ (KTEB)

Lat: 40.85889 Lon: -74.05667

Local Radar Image active severe weather and emergency alerts image image weather storm and storm spotter reports image weather observation monitoring service image
Local
Radar
Active
Alerts
Storm Reports Weather
Monitoring

5 Day Forecast for NEW YORK, NEW YORK (10001)

Thursday

Partly Sunny

High 77 °F
Thursday
Night
Slight Chance of Showers
Low 59 °F
Friday

Mostly Cloudy

High 70 °F
Friday
Night
Slight Chance of Rain
Low 53 °F
Saturday

Chance of Rain Showers
High 62 °F
Saturday
Night
Mostly Cloudy

Low 46 °F
Sunday

Partly Sunny

High 60 °F
Sunday
Night
Slight Chance of Showers
Low 45 °F
Monday

Slight Chance of Showers
High 59 °F

Sign-up For Email & Text Message Weather Alert Notification Services



Advertise Here

Observation History for NEW YORK, NEW YORK


Time Wind
(mph)
Vis
(mi)
Weather Precip (in) Temperature (F) Relative
Humidity
Wind
Chill
(F)
Heat
Index
(F)
Pressure
Air Dwpt altimeter
(in)
sea level
(mb)
1:51 pm EDT SW 15.0 10.00 Fair -- 76.0 48.0 37% NA NA 29.93 1013.6
12:51 pm EDT SW 12.7 10.00 Fair -- 75.0 48.9 40% NA NA 29.96 1014.5
11:51 am EDT SW 11.5 10.00 Fair -- 73.0 48.9 43% NA NA 29.99 1015.5
10:51 am EDT SW 6.9 10.00 Fair -- 69.0 51.1 53% NA NA 30.01 1016.3
9:51 am EDT S 5.8 10.00 Fair -- 64.0 52.0 65% NA NA 30.01 1016.3
8:51 am EDT N 0.0 10.00 Fair -- 59.0 55.0 87% NA NA 30.03 1016.9
7:51 am EDT N 0.0 10.00 Fair -- 53.0 48.9 86% NA NA 30.02 1016.7
6:51 am EDT N 0.0 10.00 Fair -- 52.0 46.9 83% NA NA 30.02 1016.6
5:51 am EDT N 0.0 10.00 Fair -- 52.0 46.9 83% NA NA 30.02 1016.4
4:51 am EDT N 0.0 10.00 Fair -- 54.0 46.9 77% NA NA 30.01 1016.2
3:51 am EDT N 0.0 10.00 Fair -- 58.0 48.9 72% NA NA 30.01 1016.3
2:51 am EDT S 3.5 10.00 Fair -- 57.0 48.9 74% NA NA 30.01 1016.2
1:51 am EDT S 5.8 10.00 Fair -- 60.0 48.9 67% 60 NA 30.00 1015.9
12:51 am EDT SW 5.8 10.00 Partly Cloudy -- 62.0 50.0 65% 62 NA 30.00 1016.0
11:51 pm EDT W 4.6 10.00 Fair -- 65.0 48.9 56% NA NA 30.01 1016.1
10:51 pm EDT W 5.8 10.00 Fair -- 66.0 48.9 54% NA NA 30.01 1016.2
9:51 pm EDT SW 5.8 10.00 A Few Clouds -- 66.0 50.0 56% NA NA 30.01 1016.3
8:51 pm EDT W 5.8 10.00 A Few Clouds -- 67.0 50.0 55% NA NA 30.00 1016.0
7:51 pm EDT SW 9.2 10.00 Fair -- 68.0 50.0 53% NA NA 30.00 1015.8
6:51 pm EDT SW 6.9 10.00 Fair -- 69.0 48.9 49% NA NA 29.99 1015.5
5:51 pm EDT W 5.8 10.00 Fair -- 72.0 48.0 43% NA NA 29.97 1014.9
4:51 pm EDT W 9.2 10.00 Fair -- 76.0 46.9 36% NA NA 29.97 1014.8
3:51 pm EDT W 10.4 10.00 Fair -- 77.0 46.9 35% NA NA 29.96 1014.6
2:51 pm EDT W 11.5 G 18.4 10.00 Fair -- 78.0 48.9 36% NA NA 29.96 1014.5

Regional Weather Observation

Caldwell, Essex County Airport, NJ (KCDW)

Fair
77.0 F

New York Downtown Manhattan, NY (KJRB)

Fair
76.0 F

Morristown Municipal, NJ (KMMU)

A Few Clouds
75.0 F

Newark, Newark International Airport, NJ (KEWR)

Partly Cloudy
79.0 F

Linden Airport, NJ (KLDJ)

Fair
77.0 F

New York City, Central Park, NY (KNYC)

Fair
73.0 F

Advertise Here


Advertise Here